Time,TemperatureF,DewpointF,PressureIn,WindDirection,WindDirectionDegrees,WindSpeedMPH,WindSpeedGustMPH,Humidity,HourlyPrecipIn,Conditions,Clouds,dailyrainin,SoftwareType,DateUTC
2013-08-01 00:21:00,78.8,75.0,30.03,SSW,195,0.0,3.0,87,0.00,,,0.00,weatherlink.com 1.10,2013-08-01 04:21:00,
2013-08-01 00:36:00,78.6,75.0,30.02,SSW,195,1.0,3.0,88,0.00,,,0.00,weatherlink.com 1.10,2013-08-01 04:36:00,
2013-08-01 00:51:00,78.5,75.0,30.02,SSW,201,1.0,5.0,88,0.00,,,0.00,weatherlink.com 1.10,2013-08-01 04:51:00,
2013-08-01 01:06:00,78.5,75.0,30.02,SSW,202,0.0,3.0,88,0.00,,,0.00,weatherlink.com 1.10,2013-08-01 05:06:00,
2013-08-01 01:22:00,78.6,75.0,30.01,SSW,201,0.0,4.0,89,0.00,,,0.00,weatherlink.com 1.10,2013-08-01 05:22:00,
2013-08-01 01:36:00,78.5,75.0,30.01,SSW,201,0.0,3.0,89,0.00,,,0.00,weatherlink.com 1.10,2013-08-01 05:36:00,
2013-08-01 01:51:00,78.5,75.0,30.01,SSW,201,0.0,4.0,89,0.00,,,0.00,weatherlink.com 1.10,2013-08-01 05:51:00,
2013-08-01 02:06:00,78.5,75.0,30.00,SSW,200,0.0,4.0,89,0.00,,,0.00,weatherlink.com 1.10,2013-08-01 06:06:00,
2013-08-01 02:22:00,78.5,75.0,29.99,SSW,200,0.0,2.0,89,0.00,,,0.00,weatherlink.com 1.10,2013-08-01 06:22:00,
2013-08-01 02:36:00,78.3,75.0,29.99,SSW,200,0.0,0.0,89,0.00,,,0.00,weatherlink.com 1.10,2013-08-01 06:36:00,
2013-08-01 02:51:00,78.2,75.0,29.98,SSW,200,0.0,3.0,90,0.00,,,0.00,weatherlink.com 1.10,2013-08-01 06:51:00,
2013-08-01 03:07:00,78.1,75.0,29.98,SSW,200,0.0,3.0,90,0.00,,,0.00,weatherlink.com 1.10,2013-08-01 07:07:00,
2013-08-01 03:22:00,76.1,72.0,29.99,West,278,4.0,20.0,86,0.00,,,0.00,weatherlink.com 1.10,2013-08-01 07:22:00,
2013-08-01 03:37:00,73.4,70.0,29.99,SSW,211,3.0,7.0,89,0.09,,,0.09,weatherlink.com 1.10,2013-08-01 07:37:00,
2013-08-01 04:07:00,72.4,70.0,29.99,SW,234,0.0,1.0,91,0.15,,,0.15,weatherlink.com 1.10,2013-08-01 08:07:00,
2013-08-01 04:22:00,72.3,70.0,29.98,SW,234,0.0,0.0,91,0.15,,,0.16,weatherlink.com 1.10,2013-08-01 08:22:00,
2013-08-01 04:37:00,72.2,70.0,29.98,SW,234,0.0,0.0,91,0.07,,,0.17,weatherlink.com 1.10,2013-08-01 08:37:00,
2013-08-01 04:52:00,72.4,70.0,29.98,SW,234,0.0,0.0,91,0.04,,,0.17,weatherlink.com 1.10,2013-08-01 08:52:00,
2013-08-01 05:22:00,72.5,70.0,29.97,SW,234,0.0,0.0,92,0.02,,,0.18,weatherlink.com 1.10,2013-08-01 09:22:00,
2013-08-01 05:37:00,72.7,70.0,29.97,SW,234,0.0,2.0,92,0.01,,,0.18,weatherlink.com 1.10,2013-08-01 09:37:00,
2013-08-01 06:07:00,73.2,71.0,29.98,SW,234,0.0,1.0,92,0.02,,,0.19,weatherlink.com 1.10,2013-08-01 10:07:00,
2013-08-01 06:52:00,72.8,70.0,29.98,SW,234,0.0,1.0,92,0.01,,,0.19,weatherlink.com 1.10,2013-08-01 10:52:00,
2013-08-01 07:07:00,73.0,71.0,29.98,SW,234,0.0,1.0,92,0.00,,,0.19,weatherlink.com 1.10,2013-08-01 11:07:00,
2013-08-01 07:22:00,73.5,71.0,29.98,SW,234,0.0,2.0,92,0.00,,,0.19,weatherlink.com 1.10,2013-08-01 11:22:00,
2013-08-01 07:52:00,74.2,72.0,29.98,SW,234,0.0,3.0,92,0.00,,,0.19,weatherlink.com 1.10,2013-08-01 11:52:00,
2013-08-01 08:22:00,74.8,72.0,29.98,SW,229,0.0,0.0,92,0.00,,,0.19,weatherlink.com 1.10,2013-08-01 12:22:00,
2013-08-01 08:37:00,75.0,73.0,29.98,SW,229,0.0,3.0,92,0.00,,,0.19,weatherlink.com 1.10,2013-08-01 12:37:00,
2013-08-01 08:52:00,75.1,73.0,29.98,South,185,2.0,5.0,92,0.01,,,0.20,weatherlink.com 1.10,2013-08-01 12:52:00,
2013-08-01 09:22:00,74.6,72.0,29.97,SSE,166,4.0,7.0,92,0.02,,,0.21,weatherlink.com 1.10,2013-08-01 13:22:00,
2013-08-01 09:37:00,74.8,72.0,29.97,SSW,207,0.0,8.0,92,0.03,,,0.22,weatherlink.com 1.10,2013-08-01 13:37:00,
2013-08-01 09:52:00,74.5,72.0,29.97,SSE,167,2.0,8.0,92,0.05,,,0.25,weatherlink.com 1.10,2013-08-01 13:52:00,
2013-08-01 10:22:00,74.8,72.0,29.96,SSW,203,2.0,5.0,92,0.06,,,0.27,weatherlink.com 1.10,2013-08-01 14:22:00,
2013-08-01 11:07:00,75.5,73.0,29.95,SSW,203,0.0,4.0,92,0.01,,,0.27,weatherlink.com 1.10,2013-08-01 15:07:00,
2013-08-01 11:22:00,76.0,74.0,29.96,SSW,196,5.0,6.0,92,0.00,,,0.27,weatherlink.com 1.10,2013-08-01 15:22:00,
2013-08-01 11:37:00,76.8,74.0,29.96,SSW,207,0.0,6.0,92,0.00,,,0.27,weatherlink.com 1.10,2013-08-01 15:37:00,
2013-08-01 12:07:00,77.4,75.0,29.95,SSW,213,4.0,7.0,91,0.00,,,0.27,weatherlink.com 1.10,2013-08-01 16:07:00,
2013-08-01 12:22:00,77.4,74.0,29.96,SSW,194,0.0,6.0,90,0.00,,,0.27,weatherlink.com 1.10,2013-08-01 16:22:00,
2013-08-01 12:37:00,79.0,75.0,29.95,SW,229,0.0,8.0,88,0.00,,,0.27,weatherlink.com 1.10,2013-08-01 16:37:00,
2013-08-01 13:52:00,81.9,77.0,29.94,South,184,0.0,9.0,84,0.00,,,0.27,weatherlink.com 1.10,2013-08-01 17:52:00,
2013-08-01 14:22:00,83.1,78.0,29.93,SSW,194,1.0,12.0,84,0.00,,,0.27,weatherlink.com 1.10,2013-08-01 18:22:00,
2013-08-01 14:53:00,83.7,77.0,29.92,SSW,194,4.0,7.0,80,0.00,,,0.27,weatherlink.com 1.10,2013-08-01 18:53:00,
2013-08-01 15:07:00,82.4,76.0,29.91,SSW,203,0.0,9.0,82,0.00,,,0.27,weatherlink.com 1.10,2013-08-01 19:07:00,
2013-08-01 15:22:00,82.8,77.0,29.91,SSW,211,1.0,11.0,83,0.00,,,0.27,weatherlink.com 1.10,2013-08-01 19:22:00,
2013-08-01 15:37:00,84.2,77.0,29.91,SSW,213,2.0,14.0,80,0.00,,,0.27,weatherlink.com 1.10,2013-08-01 19:37:00,
2013-08-01 16:22:00,81.6,76.0,29.90,SSW,198,2.0,15.0,83,0.00,,,0.27,weatherlink.com 1.10,2013-08-01 20:22:00,
2013-08-01 16:52:00,79.8,75.0,29.90,SSW,208,7.0,12.0,85,0.00,,,0.27,weatherlink.com 1.10,2013-08-01 20:52:00,
2013-08-01 17:08:00,79.5,75.0,29.90,SSW,198,0.0,11.0,86,0.00,,,0.27,weatherlink.com 1.10,2013-08-01 21:08:00,
2013-08-01 17:23:00,79.3,75.0,29.90,WNW,285,2.0,7.0,87,0.00,,,0.27,weatherlink.com 1.10,2013-08-01 21:23:00,
2013-08-01 18:23:00,78.8,75.0,29.90,West,266,5.0,8.0,88,0.00,,,0.27,weatherlink.com 1.10,2013-08-01 22:23:00,
2013-08-01 18:38:00,79.1,75.0,29.91,SSW,204,0.0,9.0,87,0.00,,,0.27,weatherlink.com 1.10,2013-08-01 22:38:00,
2013-08-01 18:53:00,79.6,76.0,29.91,SSW,199,6.0,6.0,87,0.00,,,0.27,weatherlink.com 1.10,2013-08-01 22:53:00,
2013-08-01 19:08:00,79.8,75.0,29.90,WNW,291,2.0,10.0,86,0.00,,,0.27,weatherlink.com 1.10,2013-08-01 23:08:00,
2013-08-01 19:23:00,79.7,75.0,29.91,WNW,285,1.0,8.0,86,0.00,,,0.27,weatherlink.com 1.10,2013-08-01 23:23:00,
2013-08-01 19:38:00,79.2,75.0,29.92,South,180,4.0,8.0,86,0.00,,,0.27,weatherlink.com 1.10,2013-08-01 23:38:00,
2013-08-01 19:53:00,78.8,75.0,29.92,SSW,192,2.0,7.0,87,0.00,,,0.27,weatherlink.com 1.10,2013-08-01 23:53:00,
2013-08-01 20:08:00,78.5,74.0,29.92,WSW,242,2.0,6.0,87,0.00,,,0.27,weatherlink.com 1.10,2013-08-02 00:08:00,
2013-08-01 20:23:00,78.3,75.0,29.93,WSW,240,0.0,8.0,88,0.00,,,0.27,weatherlink.com 1.10,2013-08-02 00:23:00,
2013-08-01 20:53:00,78.2,74.0,29.93,West,273,2.0,4.0,88,0.00,,,0.27,weatherlink.com 1.10,2013-08-02 00:53:00,
2013-08-01 21:07:00,78.5,75.0,29.94,WSW,249,0.0,7.0,88,0.00,,,0.27,weatherlink.com 1.10,2013-08-02 01:07:00,
2013-08-01 21:37:00,78.6,75.0,29.95,West,273,0.0,5.0,89,0.00,,,0.27,weatherlink.com 1.10,2013-08-02 01:37:00,
2013-08-01 21:52:00,78.3,75.0,29.95,West,264,0.0,6.0,89,0.00,,,0.27,weatherlink.com 1.10,2013-08-02 01:52:00,
2013-08-01 22:07:00,77.8,74.0,29.94,West,264,0.0,5.0,89,0.00,,,0.27,weatherlink.com 1.10,2013-08-02 02:07:00,
2013-08-01 22:22:00,77.5,74.0,29.95,West,264,0.0,2.0,89,0.00,,,0.27,weatherlink.com 1.10,2013-08-02 02:22:00,
2013-08-01 22:37:00,77.3,74.0,29.95,West,264,0.0,2.0,90,0.00,,,0.27,weatherlink.com 1.10,2013-08-02 02:37:00,
2013-08-01 22:52:00,77.2,74.0,29.95,WSW,250,0.0,3.0,90,0.00,,,0.27,weatherlink.com 1.10,2013-08-02 02:52:00,
2013-08-01 23:07:00,77.2,74.0,29.95,WSW,250,3.0,4.0,90,0.00,,,0.27,weatherlink.com 1.10,2013-08-02 03:07:00,
2013-08-01 23:22:00,77.1,74.0,29.96,SW,227,2.0,2.0,90,0.00,,,0.27,weatherlink.com 1.10,2013-08-02 03:22:00,
2013-08-01 23:37:00,77.2,74.0,29.95,SW,227,0.0,1.0,90,0.00,,,0.27,weatherlink.com 1.10,2013-08-02 03:37:00,
2013-08-01 23:52:00,77.1,74.0,29.95,SW,227,0.0,3.0,90,0.00,,,0.27,weatherlink.com 1.10,2013-08-02 03:52:00,